Flag for Norway Weather past 2 weeks in Kopervik, Norway

Now
39 °F

Broken clouds.


Feels Like: 36 °F
Forecast: 36 / 40 °F
Wind: 5 mph from Northwest

Location: Haugesund / Karmoy

Current Time: Mar 30, 2015 at 10:08:57 AM

Latest Report: Mar 30, 2015 at 9:20 AM


Visibility: N/A

Pressure: 29.09 "Hg

Humidity: 93%

Dew point: 37 °F

Location of KopervikLocation

Historic Weather in Kopervik — Graph

°F

Kopervik temperature yesterday

Maximum temperature yesterday: 45 °F (at 11:50 AM)
Minimum temperature yesterday: 39 °F (at 11:50 PM)
Average temperature yesterday: 42 °F

Past Weeks' High & Low Weather Summary

 TemperatureHumidityPressure
High54 °F (Mar 17, 12:50 PM)100% (Mar 18, 11:20 PM)30.74 "Hg (Mar 18, 11:20 PM)
Low25 °F (Mar 15, 7:20 AM)26% (Mar 21, 2:50 PM)29.00 "Hg (Mar 29, 9:50 PM)
Average42 °F78%30.01 "Hg
* Reported Mar 15 7:20 AM — Mar 30 8:50 AM, Kopervik, Weather by CustomWeather, © 2015

Note: Actual official high and low records may vary slightly from our data, if they occured in-between our weather recording intervals... More about our weather records

Advertising

Kopervik weather history for previous 24 hours

 ConditionsComfort  
Time TempWeatherWind HumidityBarometerVisibility
8:50 AM
Mon, Mar 30
39 °FPartly sunny.12 mph87%29.09 "HgN/A
8:20 AM39 °FPartly sunny.7 mph87%29.09 "HgN/A
7:50 AM39 °FPassing clouds.6 mph87%29.06 "HgN/A
7:20 AM39 °FPassing clouds.7 mph87%29.06 "HgN/A
6:50 AM39 °FPassing clouds.8 mph87%29.03 "HgN/A
6:20 AM39 °FPassing clouds.8 mph87%29.03 "HgN/A
5:50 AM37 °FPassing clouds.6 mph93%29.03 "HgN/A
5:20 AM37 °FPassing clouds.8 mph93%29.00 "HgN/A
4:50 AM39 °FSprinkles. Passing clouds.8 mph87%29.00 "HgN/A
4:20 AM39 °FPartly cloudy.8 mph87%29.00 "HgN/A
3:50 AM39 °FLight rain. Partly cloudy.10 mph93%29.00 "HgN/A
3:20 AM39 °FSprinkles. Fog.12 mph87%29.00 "HgN/A
2:50 AM39 °FSprinkles. Overcast.12 mph87%29.00 "HgN/A
2:20 AM39 °FPartly cloudy.14 mph87%29.00 "HgN/A
1:50 AM39 °FMostly cloudy.13 mph87%29.00 "HgN/A
1:20 AM41 °FPassing clouds.7 mph87%29.00 "HgN/A
12:50 AM41 °FPassing clouds.7 mph87%29.00 "HgN/A
12:20 AM41 °FPassing clouds.7 mph87%29.00 "HgN/A
11:50 PM
Sun, Mar 29
39 °FPartly cloudy.6 mph87%29.00 "HgN/A
11:20 PM41 °FPartly cloudy.5 mph87%29.00 "HgN/A
10:50 PM41 °FPassing clouds.6 mph87%29.00 "HgN/A
10:20 PM41 °FPassing clouds.6 mph87%29.00 "HgN/A
9:50 PM41 °FClear.7 mph87%29.00 "Hg10 mi
9:20 PM41 °FPassing clouds.6 mph87%29.03 "HgN/A
8:50 PM41 °FScattered clouds.5 mph87%29.03 "HgN/A
8:20 PM41 °FBroken clouds.7 mph87%29.03 "HgN/A
7:50 PM43 °FBroken clouds.7 mph87%29.03 "HgN/A
7:20 PM43 °FPartly sunny.6 mph87%29.03 "HgN/A
6:50 PM43 °FScattered showers. Partly sunny.5 mph87%29.03 "HgN/A
6:20 PM43 °FScattered showers. Partly sunny.7 mph87%29.03 "HgN/A
5:50 PM43 °FPartly sunny.8 mph87%29.03 "HgN/A
5:20 PM45 °FPartly sunny.6 mph76%29.03 "HgN/A
4:50 PM45 °FPartly sunny.6 mph76%29.06 "HgN/A
4:20 PM45 °FPartly sunny.5 mph76%29.06 "HgN/A
3:50 PM43 °FPartly sunny.6 mph81%29.06 "HgN/A
3:20 PM45 °FScattered clouds.7 mph81%29.09 "HgN/A
2:50 PM45 °FScattered clouds.7 mph76%29.09 "HgN/A
2:20 PM45 °FScattered clouds.8 mph76%29.09 "HgN/A
1:50 PM45 °FScattered clouds.8 mph81%29.12 "HgN/A
1:20 PM45 °FScattered clouds.6 mph81%29.12 "HgN/A
12:50 PM41 °FSprinkles. Broken clouds.9 mph87%29.12 "HgN/A
12:20 PM43 °FPartly sunny.9 mph87%29.12 "HgN/A
11:50 AM45 °FPartly sunny.5 mph76%29.12 "HgN/A
11:20 AM43 °FBroken clouds.9 mph93%29.15 "HgN/A
10:50 AM43 °FBroken clouds.8 mph93%29.15 "HgN/A
10:20 AM43 °FBroken clouds.6 mph87%29.15 "HgN/A
Weather by CustomWeather, © 2015

See weather overviewHow to use our weather pages